User: anonymous
Location: Caltech
(34.1382°N, 118.1253°W)
Time: 21:01:14
(UTC-07:00)
Language:

PAYLOAD A - Orbit

View from above orbital plane
View from above orbital plane
View from above satellite
View from above satellite

Ground track
Ground track

The orbit data is extracted from the following two-line orbital elements,

1 27840U 03031A   14273.50571258  .00000098  00000-0  43885-4 0  6624
2 27840 098.2295 297.8632 0097857 224.5020 268.9667 14.38726680590852
Epoch (UTC): 30 September 2014 12:08:13
Eccentricity: 0.0097857
inclination: 98.2295°
perigee height: 693 km
apogee height: 832 km
right ascension of ascending node: 297.8632°
argument of perigee: 224.5020°
revolutions per day: 14.38726680
mean anomaly at epoch: 268.9667°
orbit number at epoch: 59085

The dashed part of the orbit path shows where the satellite is in the earth's shadow,  

DLR